Charleston, SC

6:23 PM EDT on July 21, 2017 (GMT -0400)
Charleston Air Force Base-International

Weather History for KCHS - March, 2014

Change the Weather History Date:

Sunday, March 9, 2014

  Actual Average Record
Temperature  
Mean Temperature 64 °F 57 °F  
Max Temperature 79 °F 68 °F 87 °F (1974)
Min Temperature 49 °F 45 °F 25 °F (1996)
Degree Days  
Heating Degree Days 1 9  
Month to date heating degree days 138 90  
Since 1 July heating degree days 1661 1726  
Cooling Degree Days 0 1  
Month to date cooling degree days 0 7  
Year to date cooling degree days 10 14  
Growing Degree Days 14 (Base 50)    
Moisture  
Dew Point 44 °F    
Average Humidity 54    
Maximum Humidity 80    
Minimum Humidity 28    
Precipitation  
Precipitation 0.00 in 0.12 in 1.13 in (1998)
Month to date precipitation 1.58 1.05  
Year to date precipitation 6.43 7.72  
Sea Level Pressure  
Sea Level Pressure 30.07 in    
Wind  
Wind Speed 7 mph (West)    
Max Wind Speed 15 mph    
Max Gust Speed 18 mph    
Visibility 10 miles    
Events      
T = Trace of Precipitation, MM = Missing Value Source: NWS Daily Summary

Daily Weather History Graph

Daily Weather History Graph

Search for Another Location

Airport or City:

Trip Planner

Search our weather history database for the weather conditions in past years. The results will help you decide how hot, cold, wet, or windy it might be!

Date:

Astronomy

Mar. 09, 2014 Rise Set
Actual Time 7:38 AM EDT 7:23 PM EDT
Civil Twilight 7:13 AM EDT 7:48 PM EDT
Nautical Twilight 6:44 AM EDT 8:16 PM EDT
Astronomical Twilight 6:16 AM EDT 8:45 PM EDT
Moon 1:28 PM EDT (3/9) 3:49 AM EDT (3/9)
Length of Visible Light 12h 34m
Length of Day
11h 45m
First Quarter, 61% of the Moon is Illuminated
Mar 9
First Quarter
Mar 16
Full
Mar 23
Last Quarter
Mar 30
New
Apr 7
First Quarter

Hourly Weather History & Observations

Time (EDT) Temp. Dew Point Humidity Pressure Visibility Wind Dir Wind Speed Gust Speed Precip Events Conditions
12:56 AM 51.1 °F 43.0 °F 74% 30.10 in 10.0 mi SW 9.2 mph - N/A   Clear
1:56 AM 51.1 °F 43.0 °F 74% 30.10 in 10.0 mi WSW 6.9 mph - N/A   Clear
3:56 AM 51.1 °F 44.1 °F 77% 30.09 in 10.0 mi WSW 5.8 mph - N/A   Clear
4:56 AM 50.0 °F 44.1 °F 80% 30.08 in 10.0 mi SW 6.9 mph - N/A   Clear
5:56 AM 50.0 °F 44.1 °F 80% 30.08 in 10.0 mi WSW 5.8 mph - N/A   Clear
6:56 AM 50.0 °F 44.1 °F 80% 30.10 in 10.0 mi WSW 8.1 mph - N/A   Clear
7:56 AM 50.0 °F 44.1 °F 80% 30.11 in 10.0 mi West 6.9 mph - N/A   Scattered Clouds
8:56 AM 54.0 °F 46.0 °F 75% 30.13 in 10.0 mi West 6.9 mph - N/A   Scattered Clouds
9:56 AM 60.1 °F 45.0 °F 57% 30.14 in 10.0 mi WNW 11.5 mph - N/A   Scattered Clouds
10:56 AM 66.0 °F 45.0 °F 47% 30.13 in 10.0 mi WNW 10.4 mph - N/A   Partly Cloudy
11:56 AM 70.0 °F 43.0 °F 38% 30.12 in 10.0 mi NW 10.4 mph - N/A   Partly Cloudy
12:56 PM 73.0 °F 42.1 °F 33% 30.10 in 10.0 mi West 9.2 mph - N/A   Partly Cloudy
1:56 PM 73.9 °F 42.1 °F 32% 30.08 in 10.0 mi West 6.9 mph - N/A   Scattered Clouds
2:56 PM 75.0 °F 42.1 °F 31% 30.05 in 10.0 mi North 3.5 mph - N/A   Partly Cloudy
3:56 PM 77.0 °F 41.0 °F 28% 30.03 in 10.0 mi WNW 8.1 mph 18.4 mph N/A   Clear
4:56 PM 77.0 °F 42.1 °F 29% 30.02 in 10.0 mi West 9.2 mph - N/A   Clear
5:56 PM 75.9 °F 41.0 °F 29% 30.01 in 10.0 mi WNW 8.1 mph - N/A   Partly Cloudy
6:56 PM 73.0 °F 42.1 °F 33% 30.02 in 10.0 mi West 6.9 mph - N/A   Partly Cloudy
7:56 PM 69.1 °F 43.0 °F 39% 30.03 in 10.0 mi West 3.5 mph - N/A   Partly Cloudy
8:56 PM 61.0 °F 48.0 °F 62% 30.04 in 10.0 mi SSW 9.2 mph - N/A   Clear
9:56 PM 55.9 °F 46.9 °F 72% 30.04 in 10.0 mi SW 4.6 mph - N/A   Partly Cloudy
10:56 PM 55.9 °F 48.0 °F 75% 30.05 in 10.0 mi SSW 3.5 mph - N/A   Partly Cloudy
11:56 PM 53.1 °F 46.9 °F 80% 30.05 in 10.0 mi SW 5.8 mph - N/A   Partly Cloudy
12:56 AM 55.0 °F 46.0 °F 72% 30.05 in 10.0 mi SW 4.6 mph - N/A   Clear